THOR AGENA B R/B, 1807

Orbit data source: Space-Track

THOR AGENA B R/B, 1807 is space debris in LEO originally from a launch on Mon, 29 Nov 1965 UTC launched from the Air Force Western Test Range (AFWTR). Debris objects in space refer to the collection of defunct objects orbiting the Earth. Examples of debris include non-operational satellites, rocket bodies, and fragments generated from explosions, collisions, or faulty payload assembly.

Loading next visibility...
Identifier
1807, 1965-098C
Orbit
LEO
Last TLE update
10 hours ago
Origin
Manufacturer
LMSC
Mission
Spacecraft
Bus & Motor
AGENA B, Unknown motor
Mass
600 kg wet, 600 kg dry
Launch date (UTC)
1965-11-29 (60 years ago)
Launch vehicle
Unknown
Launch site
Air Force Western Test Range (AFWTR)
Object type
Payload
Rocket body
Debris
Shape & HBR
Cyl + 1 Nozzle, 6.3 m
Radar Cross Section
8.306 m², Large (>1 m²)

Expand to show TLE details & history

TLE from 10 hours ago
0 THOR AGENA B R/B
1 01807U 65098C   25186.50366206  .00000264  00000-0  84000-4 0  9992
2 01807  79.8371 335.1645 1332924  13.9369 349.4990 12.27560240630753
Epoch: 2025-07-05T12:05Z
TLE epoch observation values (Epoch: 2025-07-05T12:05:16.401Z)
Latitude
-0.00009°
Longitude
-129.89462°
Altitude
527.685 km
Speed
8.079 km/s
True Right ascension
22h 20m 39s
True Declination
0° 00' 00"
Sunlit
Object was in full shadow at epoch
Visualization orbit readout
Latitude
-52.59694°
Longitude
-143.71754°
Altitude
1,048.479 km
Speed
7.569 km/s
Apparent Right ascension
21h 29m 49s
Apparent Declination
-46° 34' 13"
Sunlit
Object is in full shadow
Visualization observer readout
Local Sidereal Time
09:33:55
Azimuth
173.93° S
Elevation
-83.304°
Doppler factor
1
Orbital elements
Apogee altitude
2,614.924 km
Perigee altitude
499.483 km
Semi-major axis
7,935.34 km
Eccentricity
0.13329
Inclination
79.8371°
RAAN
335.1645°
Arg. of periapsis
13.9369°
True anomaly
Unknown
Mean anomaly
349.499°
Eccentric anomaly
Unknown
Mean motion
3.0704 °/min
Orbital period
117.25 mins
BSTAR
0.000084
Loading maneuver chart data...
Loading SW <> Apogee altitude chart data...
Loading historical data...
Loading historical data...
Loading historical data...
Loading historical data...
Loading historical data...
Loading historical data...
Loading historical data...

THOR AGENA B R/B Visibility forecast

Observer location: undefined°, undefined°

Span
Click to sort rows by Start time (UTC) header in descending order
Start Az.
Max El. time (UTC)
Max El. Az.
Max El.
End time (UTC)
End Az.
22 mins2025-07-05 22:23:52.489Z337.973° N2025-07-05 22:32:52.489Z259.675° W40.472°2025-07-05 22:45:52.489Z191.971° SSW
5 mins2025-07-06 00:27:52.489Z291.63° WNW2025-07-06 00:29:52.489Z281.243° WNW11.594°2025-07-06 00:32:52.489Z266.798° W
5 mins2025-07-06 11:42:52.489Z260.335° W2025-07-06 11:44:52.489Z305.413° NW22.696°2025-07-06 11:47:52.489Z346.667° N
18 mins2025-07-06 19:54:52.489Z18.175° NNE2025-07-06 20:01:52.489Z71.613° E27.874°2025-07-06 20:12:52.489Z126.755° SE
|